This is the latest recevied weather packets stored in our database for station/object 9W2XPF-13. If no packets are shown the sender has not sent any weather packets the latest 10 day(s).
| Time | Temp. | Humidity | Pressure | Rain* | Wind** | Luminosity | Snow |
|---|---|---|---|---|---|---|---|
| 1777783802 | 32.22° C | 74% | 1008.5 hPa | 0 mm | - | - | - |
| 1777783682 | 32.22° C | 74% | 1008.5 hPa | 0 mm | - | - | - |
| 1777783562 | 32.22° C | 73% | 1008.7 hPa | 0 mm | - | - | - |
| 1777783442 | 32.78° C | 71% | 1008.6 hPa | 0 mm | - | - | - |
| 1777783322 | 33.33° C | 70% | 1008.6 hPa | 0 mm | - | - | - |
| 1777783202 | 33.33° C | 69% | 1008.5 hPa | 0 mm | - | - | - |
| 1777783082 | 33.89° C | 66% | 1008.4 hPa | 0 mm | - | - | - |
| 1777782962 | 33.89° C | 66% | 1008.7 hPa | 0 mm | - | - | - |
| 1777782842 | 33.89° C | 67% | 1008.6 hPa | 0 mm | - | - | - |
| 1777782722 | 33.89° C | 65% | 1008.7 hPa | 0 mm | - | - | - |
| 1777782602 | 33.89° C | 64% | 1008.6 hPa | 0 mm | - | - | - |
| 1777782482 | 34.44° C | 64% | 1008.6 hPa | 0 mm | - | - | - |
| 1777782362 | 34.44° C | 62% | 1008.6 hPa | 0 mm | - | - | - |
| 1777782242 | 33.89° C | 63% | 1008.7 hPa | 0 mm | - | - | - |
| 1777782122 | 33.89° C | 62% | 1008.8 hPa | 0 mm | - | - | - |
| 1777782002 | 33.89° C | 64% | 1008.8 hPa | 0 mm | - | - | - |
| 1777781882 | 33.33° C | 65% | 1008.8 hPa | 0 mm | - | - | - |
| 1777781762 | 33.33° C | 67% | 1008.7 hPa | 0 mm | - | - | - |
| 1777781642 | 33.89° C | 66% | 1008.8 hPa | 0 mm | - | - | - |
| 1777781522 | 33.89° C | 65% | 1008.8 hPa | 0 mm | - | - | - |
| 1777781402 | 34.44° C | 62% | 1008.8 hPa | 0 mm | - | - | - |
| 1777781282 | 34.44° C | 61% | 1009 hPa | 0 mm | - | - | - |
| 1777781162 | 34.44° C | 62% | 1008.9 hPa | 0 mm | - | - | - |
| 1777781042 | 33.89° C | 61% | 1008.8 hPa | 0 mm | - | - | - |
| 1777780922 | 33.33° C | 63% | 1008.8 hPa | 0 mm | - | - | - |
* Rain latest hour (hover to see other rain measurements)
** Current wind speed in m/s (hover to see current wind gust speed)